GONETS-M 19

Last updated on Thu Oct 29 2020 00:02:02 GMT+0000 (Coordinated Universal Time)

1 46488U 20068C 20302.48077639 .00000010 00000-0 00000+0 0 9997 2 46488 82.4998 187.4694 0012886 217.6182 142.3961 12.42893263 3732
UTC large
Height (km)
Speed (km/s)
/
Latitude / Longitude
Inclination (degrees)
Orbital Period (minutes)
Azimuth
Elevation
Range (km)
Doppler Factor

Next 0 passes for location: London (51.5072 / 0.1276)

Sorry there are no passes over London.